www.pogodaiklimat.ru

Погода и климат >> Архив погоды >> Россия >> Амурская область >> Береговой


ПОГОДА в Береговом

  • Прогноз погоды в Береговом
  • Монитор погоды в Береговом

АРХИВ ПОГОДЫ в Береговом

Время (UTC), дата Ветер
(напр.,м/с)
 
Видим.   Явления Облачность Т
(С)
Тd
(С)
f
(%)
Тe
(С)
Тes
(С)
Комфортность P
(гПа)
Po
(гПа)
Тmin
(С)
Tmax
(С)
R
(мм)
R24
(мм)
S
(см)
18 12.06 СВ 2 2000 м слаб. ливневой дождь 10/10 300 м
[Cb cap]
+5.4 +5.4 100 +3 +3 1005.7 963.4
21 12.06 СВ 2 2000 м ливневой дождь 10/10 300 м
[Cb cap]
+5.2 +5.2 100 +2 +2 1006.7 964.3
00 13.06 СВ 3 4000 м слаб. ливневой дождь 10/10 300 м
[Cb cap]
+5.6 +5.4 99 +2 +2 1008.3 965.9 +4.9 23
06 13.06 С 1 50 км {ливн. осадки} 10/0
[Ac trans Ci fib]
+12.7 +6.1 64 +13 +22 1007.1 965.8
12 13.06 В 2 50 км 9/0
[Ac trans Ci fib]
+12.0 +6.5 69 +11 +11 1009.1 967.6 +15.5 0.6
18 13.06 СВ 2 50 км 9/4 600 м
[Sc Ac trans]
+7.2 +4.2 81 +5 +5 1013.2 970.9
21 13.06 СВ 2 50 км 9/3 600 м
[Sc Ac trans]
+6.2 +3.6 83 +4 +4 1015.3 972.7
00 14.06 СВ 2 50 км 6/0
[Ac trans]
+8.0 +3.1 71 +6 +12 1015.9 973.6 +5.3
03 14.06 С 2 50 км 1/0
[Ac trans]
+11.7 +1.6 50 +11 +26 опасность
простуды
1015.3 973.5
06 14.06 В 2 50 км 1/1 600 м
[Cu hum]
+15.2 +1.9 41 +15 +26 опасность
простуды
1013.9 972.7
09 14.06 Ю 1 50 км ясно +16.7 +1.0 35 +18 +22 1013.3 972.3
12 14.06 штиль 0 50 км ясно +10.6 +4.9 68 +10 +10 1015.1 973.1 +17.2
15 14.06 З 1 50 км ясно +5.8 +2.9 82 +5 +5 1016.9 974.2
18 14.06 СЗ 2 50 км 3/3 600 м
[Sc]
+3.0 +2.2 94 -0 -0 1018.5 975.2
21 14.06 З 1 50 км 6/1 600 м
[Sc Ac trans]
+3.4 +2.7 95 +2 +3 1019.1 975.9
00 15.06 В 3 50 км 1/0
[Ac trans]
+9.4 +3.0 64 +7 +15 1018.6 976.3 +1.6
03 15.06 В 3 50 км ясно +12.7 +3.6 54 +12 +25 опасность
простуды
1016.3 974.6
06 15.06 В 2 50 км 1/1 600 м
[Cu hum]
+18.0 +3.1 37 +19 +30 1013.3 972.5
09 15.06 В 2 50 км 1/0
[Ci fib]
+18.0 +1.4 33 +19 +22 1012.1 971.3
12 15.06 штиль 0 50 км 3/1 600 м
[Sc Ac trans]
+12.2 +6.5 68 +12 +12 1012.8 971.2 +19.0
15 15.06 З 1 50 км 3/0
[Ac trans]
+9.7 +4.6 71 +9 +9 1013.4 971.4
18 15.06 З 1 50 км 4/0
[Ac trans Ci fib]
+5.7 +3.6 86 +5 +5 1014.1 971.5
21 15.06 штиль 0 50 км 9/0
[Ac trans Ci fib]
+6.5 +4.9 90 +6 +7 1013.5 971.0
00 16.06 ЮВ 1 50 км 9/0
[Ac trans Ci fib]
+12.8 +7.0 68 +13 +20 1011.1 969.7 +4.8
06 16.06 ЮВ 2 50 км в посл. час ливневой дождь 9/4 600 м
[Cb cap Ac trans]
+11.8 +9.4 85 +11 +14 1010.3 968.8
09 16.06 ЮВ 2 20 км слаб. ливневой дождь 10/10 300 м
[Cb cap]
+10.2 +9.4 95 +9 +9 1010.3 968.6
12 16.06 штиль 0 50 км {ливн. осадки} 9/6 600 м
[Sc diur, vesp Ac trans]
+10.2 +10.1 99 +9 +9 1010.7 968.9 +22.5 3
15 16.06 штиль 0 50 км 9/3 600 м
[Sc Ac trans]
+9.7 +9.7 100 +9 +9 1010.8 969.0
21 16.06 З 1 50 км ясно +9.3 +8.5 95 +9 +10 1012.0 970.1
00 17.06 ЮВ 2 50 км 1/0
[Ci fib]
+11.3 +9.5 89 +10 +19 1012.2 970.5 +6.1
09 17.06 ЮВ 1 50 км 1/1 600 м
[Sc diur, vesp]
+18.8 +8.2 50 +20 +24 1008.3 967.8
12 17.06 Ю 1 50 км 1/1 600 м
[Sc]
+15.2 +9.6 69 +16 +16 1008.8 967.9 +20.2
15 17.06 штиль 0 50 км ясно +9.4 +7.3 87 +9 +9 1009.6 967.8
21 17.06 штиль 0 50 км 3/0
[Ci fib]
+9.6 +6.6 82 +9 +11 1007.7 966.0
00 18.06 С 1 50 км 3/0
[Ac trans]
+19.9 +8.2 47 +22 +31 комфорт 1004.0 963.8 +5.4
06 18.06 Ю 1
{11}
20 км гроза, ливневой дождь 9/8 600 м
[Cb cap Ci fib]
+19.5 +9.1 51 +22 +24 комфорт 999.1 959.1
09 18.06 СВ 2
{12}
50 км гроза, ливневой дождь 9/6 600 м
[Cb cap Ci fib]
+20.2 +12.0 59 +23 +24 комфорт 998.3 958.5
12 18.06 З 1
{12}
50 км в посл. час ливневой дождь {гроза} 10/10 600 м
[Cb cap]
+12.6 +12.2 97 +12 +12 1002.9 961.8 +27.0 2
00 19.06 СВ 3 50 км 4/0
[Ci fib]
+13.6 +2.2 46 +13 +20 1005.4 964.3 +8.6
12 19.06 З 1 50 км 1/0
[Ac trans]
+15.5 +8.0 61 +16 +16 1006.2 965.3 +22.0

 

Местоположение метеостанции Береговой (Амурская область, Россия): широта 54.38 долгота 127.40 высота над уровнем моря 353 м.

В архиве по умолчанию представлена погода в Береговом за последнюю неделю. Архивные данные за месяц целиком и за предыдущие месяцы, начиная с января 2011 года, Вы можете получить, выбрав интересующий диапазон дат из раскрывающегося списка и нажав кнопку "Ввод!".


*Определитесь, кто Вы:
робот инопланетянин человек

Внимание! Время в таблицах - всемирное. Для получения местного времени необходимо прибавить поправку, которая равна 9 ч.

Смотрите также архив погоды в соседних городах и на ближайших метеорологических станциях:

Погода в Зее (Амурская область, Россия) (73 км)
Погода в Бомнаке (Амурская область, Россия) (98 км)
Погода в Магдагачи (Амурская область, Россия) (147 км)
Погода в Тыгде (Амурская область, Россия) (160 км)
Погода в Октябрьский Прииск (Амурская область, Россия) (173 км)
Погода в Локшаке (Амурская область, Россия) (197 км)
Погода в Тынде (Амурская область, Россия) (200 км)
Погода в Черняево (Амурская область, Россия) (201 км)
Погода в Дугде (Амурская область, Россия) (205 км)
Погода в Сковородино (Амурская область, Россия) (232 км)

Пояснения к столбцам:

Ветер - указаны скорость ветра в м/с - средняя за 10 мин, порывы в срок и между сроками (в фигурных скобках) и направление, откуда дует ветер: С - северный, СВ - северо-восточный, В - восточный, ЮВ - юго-восточный, Ю - южный, ЮЗ - юго-западный, З - западный, СЗ - северо-западный.
Видимость - горизонтальная дальность видимости в метрах или километрах. При видимости от 1 до 10 км при отсутствии осадков обычно наблюдается дымка, при ухудшении видимости до 1 км и менее - туман. В сухую погоду видимость может ухудшаться дымом, пылью или мглою.
Явления - указаны атмосферные явления, наблюдавшиеся в срок или в последний час перед сроком; фигурными скобками обозначены явления, наблюдавшиеся между сроками (за 1-3 часа до срока); квадратными скобками обозначены град или гололедные отложения с указанием их диаметра в мм.
Облачность - указаны через наклонную черту общая и нижняя облачность в баллах и высота нижней границы облаков в метрах; квадратными скобками обозначены формы облаков: Ci - перистые, Cs - перисто-слоистые, Cc - перисто-кучевые, Ac - высококучевые, As - высокослоистые, Sc - слоисто-кучевые, Ns - слоисто-дождевые, Cu - кучевые, Cb - кучево-дождевые. Подробнее классификацию облаков см. в Атласе облаков (PDF).
T - Температура воздуха - температура, измеренная на высоте 2 м над землей.
Td - Температура точки росы - температура, при понижении до которой содержащийся в воздухе водяной пар достигнет насыщения.
f - Относительная влажность воздуха - влажноcть воздуха, измеренная на высоте 2 м над землей.
Te - Эффективная температура - температура, которую ощущает одетый по сезону человек в тени. Характеристика душности погоды. При расчете учитывается влияние влажности воздуха и скорости ветра на теплоощущения человека.
Tes - Эффективная температура на солнце - температура, которую ощущает человек, с поправкой на солнечный нагрев. Характеристика знойности погоды. Зависит от высоты солнца над горизонтом, облачности и скорости ветра. Ночью, в пасмурную погоду, а также при ветре 12 м/с и более поправка равна нулю.
P - Атмосферное давление - приведенное к уровню моря атмосферное давление.
Po - Атмосферное давление - измеренное на уровне метеостанции атмосферное давление.
Tmin - Минимальная температура - минимум температуры воздуха на высоте 2 м над землей.
Tmax - Максимальная температура - максимум температуры воздуха на высоте 2 м над землей.
R - Количество осадков - Количество выпавших осадков за период времени, мм. При наведении курсора мыши на число - период времени, за который выпало указанное количество осадков.
R24 - Количество осадков - Количество выпавших осадков за 24 часа, мм.
S - Снежный покров - Высота снежного покрова, см. При наведении курсора мыши на число - состояние снежного покрова и степень покрытия местности в баллах.